Location: Zagreb
(45.8000°N, 16.0000°E)
Time: 01:27:47
(UTC+01:00)

NO-84 - Pass Details

Date: 05 November 2020
Orbit: 323 x 458 km, 55.0° (Epoch: 25 November)

Event Time Altitude Azimuth Distance (km) Brightness Sun altitude
Exits shadow 04:59:23 20° 353° (N) 995 ? -18.2°
Maximum altitude 05:00:12 22° 16° (NNE) 922 ? -18.1°
Drops below altitude 10° 05:02:44 10° 70° (ENE) 1,400 ? -17.6°
Sets 05:05:00 0° 87° (E) 2,219 ? -17.2°
